logo liguriameteo

Diretta Meteo Rouen, Franciadomenica 10 maggio ore 11:30

Mappa
Sereno 14 °C Sereno 24 Ore: T.min 12 T.max 23
Ponente Nord-Est Km/h 31.5 Punto di rugiada: 9 °C Umidità: 71% Visibilità: 10 Km
Il sole sorge alle: 06:16 Il sole tramonta alle: 21:26
10 Maggio 2026 11:30 tempo osservato: Sereno Sereno 14 71 1010 vento: Nord NE 31.5
10 Maggio 2026 11:00 tempo osservato: Sereno Sereno 14 71 1010 vento: Nord NE 33.3
10 Maggio 2026 10:30 tempo osservato: Sereno Sereno 14 67 1011 vento: Nord NE 27.8
10 Maggio 2026 10:00 tempo osservato: Sereno Sereno 14 67 1011 vento: Nord NE 24
10 Maggio 2026 09:30 tempo osservato: Sereno Sereno 14 67 1011 vento: Nord E/NE 22.2
10 Maggio 2026 09:00 tempo osservato: Sereno Sereno 13 66 1011 vento: Nord NE 24
10 Maggio 2026 08:30 tempo osservato: Sereno Sereno 12 71 1011 vento: Nord N/NE 22.2
10 Maggio 2026 08:00 tempo osservato: Sereno Sereno 12 71 1011 vento: Nord NE 20.3
10 Maggio 2026 07:30 tempo osservato: Sereno Sereno 12 71 1011 vento: Nord NE 24
10 Maggio 2026 07:00 tempo osservato: Sereno Sereno 12 71 1011 vento: Nord N/NE 20.3
10 Maggio 2026 06:30 tempo osservato: Sereno Sereno 12 71 1011 vento: Nord N/NE 20.3
10 Maggio 2026 06:00 tempo osservato: Sereno Sereno 12 71 1011 vento: Nord NE 20.3
10 Maggio 2026 05:30 tempo osservato: Sereno Sereno 12 71 1011 vento: Nord N/NE 22.2
10 Maggio 2026 05:00 tempo osservato: Sereno Sereno 13 66 1011 vento: Nord NE 20.3
10 Maggio 2026 04:30 tempo osservato: Sereno Sereno 12 76 1012 vento: Nord E/NE 20.3
10 Maggio 2026 04:00 tempo osservato: Sereno Sereno 13 71 1012 vento: Nord NE 24
10 Maggio 2026 03:30 tempo osservato: Sereno Sereno 13 71 1012 vento: Nord E/NE 20.3
10 Maggio 2026 03:00 tempo osservato: Sereno Sereno 14 67 1012 vento: Nord E/NE 20.3
10 Maggio 2026 02:30 tempo osservato: Sereno Sereno 14 67 1012 vento: Nord E/NE 24
10 Maggio 2026 02:00 tempo osservato: Sereno Sereno 14 67 1013 vento: Nord E/NE 24
10 Maggio 2026 01:30 tempo osservato: Sereno Sereno 15 62 1013 vento: Nord E/NE 22.2
10 Maggio 2026 01:00 tempo osservato: Sereno Sereno 15 67 1013 vento: Nord E/NE 20.3
10 Maggio 2026 00:30 tempo osservato: Sereno Sereno 16 63 1013 vento: Nord E/NE 22.2
10 Maggio 2026 00:00 tempo osservato: Sereno Sereno 16 63 1013 vento: Nord E/NE 20.3
9 Maggio 2026 23:30 tempo osservato: Sereno Sereno 16 63 1013 vento: Nord E/NE 20.3
9 Maggio 2026 23:00 tempo osservato: Sereno Sereno 16 67 1013 vento: Nord NE 18.5
9 Maggio 2026 22:30 tempo osservato: Sereno Sereno 16 67 1013 vento: Nord NE 18.5
9 Maggio 2026 22:00 tempo osservato: Sereno Sereno 17 63 1013 vento: Nord NE 16.7
9 Maggio 2026 21:30 tempo osservato: Sereno Sereno 17 67 1013 vento: Nord NE 16.7
9 Maggio 2026 21:00 tempo osservato: Sereno Sereno 18 63 1012 vento: Nord NE 18.5
9 Maggio 2026 20:30 tempo osservato: Sereno Sereno 19 59 1012 vento: Nord E/NE 18.5
9 Maggio 2026 20:00 tempo osservato: Sereno Sereno 20 56 1012 vento: Nord E/NE 18.5
9 Maggio 2026 19:30 tempo osservato: Sereno Sereno 20 56 1012 vento: Nord E/NE 20.3
9 Maggio 2026 19:00 tempo osservato: Sereno Sereno 21 56 1012 vento: Nord E/NE 20.3
9 Maggio 2026 18:30 tempo osservato: Sereno Sereno 22 49 1012 vento: Nord E 20.3
9 Maggio 2026 18:00 tempo osservato: Sereno Sereno 22 53 1013 vento: Nord E 16.7
9 Maggio 2026 17:30 tempo osservato: Sereno Sereno 23 49 1013 vento: Nord E 22.2
9 Maggio 2026 17:00 tempo osservato: Sereno Sereno 21 52 1013 vento: Nord E 18.5
9 Maggio 2026 16:30 tempo osservato: Sereno Sereno 22 46 1013 vento: Nord E 18.5
9 Maggio 2026 16:00 tempo osservato: Sereno Sereno 21 52 1013 vento: Nord E 14.8
9 Maggio 2026 15:30 tempo osservato: Sereno Sereno 22 53 1013 vento: Nord E 18.5
9 Maggio 2026 15:00 tempo osservato: Molto Nuvoloso Molto Nuvoloso 21 52 1013 vento: Nord E 20.3
9 Maggio 2026 14:30 tempo osservato: Molto Nuvoloso Molto Nuvoloso 22 49 1014 vento: Nord E 18.5
9 Maggio 2026 14:00 tempo osservato: Sereno Sereno 21 52 1014 vento: Nord E 22.2
9 Maggio 2026 13:30 tempo osservato: Sereno Sereno 21 52 1014 vento: Nord E 16.7
9 Maggio 2026 13:00 tempo osservato: Sereno Sereno 20 59 1015 vento: Nord E/NE 14.8
9 Maggio 2026 12:30 tempo osservato: Sereno Sereno 19 59 1015 vento: Nord E/NE 13
9 Maggio 2026 12:00 tempo osservato: Sereno Sereno 19 59 1015 vento: Nord E 13